KC0RIG Weather Reports


time (UTC)temp
C
wind
direction
speed
KPH
gust
KPH
rain 1hr
cm
rain 24hr
cm
rain mn
cm
humidity
%
barometer
mb
20260906184004 19 271 4.8 12.9 0.05 0.89 0.89 91 1019.5
20260906183004 19 234 9.7 19.3 0.10 0.89 0.89 90 1020.3
20260906182005 20 249 11.3 19.3 0.10 0.86 0.86 87 1020.7
20260906181005 20 193 4.8 20.9 0.15 0.84 0.84 88 1020.9
20260906175004 19 271 6.4 16.1 0.66 0.84 0.84 92 1020.3
20260906174005 19 272 9.7 19.3 0.76 0.84 0.84 92 1020.6
20260906173004 19 174 19.3 32.2 0.79 0.79 0.79 92 1019.3
20260906172005 19 179 16.1 29.0 0.76 0.76 0.76 93 1019.3
20260906171004 20 159 16.1 24.1 0.69 0.69 0.69 93 1019.1
20260906170004 20 139 16.1 32.2 0.38 0.38 0.38 91 1018.8
20260906164004 20 166 16.1 29.0 0.08 0.08 0.08 88 1019.8
20260906163005 20 158 22.5 48.3 0.00 0.00 0.00 83 1019.9
20260906162005 20 154 20.9 41.8 0.00 0.00 0.00 81 1019.5
20260906161005 20 127 29.0 49.9 0.00 0.00 0.00 83 1019.0
20260906160005 21 123 27.4 49.9 0.00 0.00 0.00 88 1019.1
20260906155004 22 122 24.1 35.4 0.00 0.00 0.00 95 1019.0
20260906154004 22 123 14.5 24.1 0.00 0.03 0.00 95 1018.5
20260906153004 22 141 14.5 22.5 0.00 0.03 0.00 95 1018.3
20260906152005 22 152 14.5 19.3 0.00 0.08 0.00 95 1017.7
20260906151004 22 155 9.7 19.3 0.00 0.13 0.00 96 1017.4
20260906150005 22 156 11.3 19.3 0.00 0.23 0.00 96 1017.4
20260906145004 22 158 11.3 20.9 0.00 0.25 0.00 96 1017.5
20260906144005 22 168 12.9 19.3 0.00 0.28 0.00 96 1017.7
20260906143005 22 165 11.3 22.5 0.00 0.28 0.00 96 1017.9
20260906142004 22 164 14.5 20.9 0.00 0.28 0.00 96 1017.9
20260906141005 22 163 9.7 20.9 0.00 0.30 0.00 96 1017.9
20260906140004 22 176 9.7 19.3 0.00 0.30 0.00 96 1017.9
20260906134004 22 185 9.7 19.3 0.00 0.36 0.00 96 1017.6
20260906133004 22 173 9.7 19.3 0.00 0.38 0.00 96 1017.5
20260906132004 22 172 11.3 19.3 0.00 0.38 0.00 96 1017.5
20260906131004 22 177 11.3 16.1 0.00 0.41 0.00 96 1017.5
20260906130004 22 169 8.0 16.1 0.00 0.41 0.00 97 1017.6
20260906125004 21 171 6.4 16.1 0.00 0.41 0.00 96 1017.6
20260906124005 21 177 8.0 14.5 0.00 0.41 0.00 96 1017.5
20260906123004 21 185 9.7 19.3 0.00 0.41 0.00 96 1017.6
20260906122004 21 165 8.0 20.9 0.00 0.41 0.00 96 1017.6
20260906120005 21 175 8.0 19.3 0.00 0.41 0.00 96 1017.3
20260906115004 21 170 11.3 16.1 0.00 0.41 0.00 96 1017.1
20260906114004 22 159 11.3 19.3 0.00 0.41 0.00 96 1017.1
20260906113004 22 164 9.7 24.1 0.00 0.41 0.00 96 1016.8
20260906112004 22 165 9.7 16.1 0.00 0.41 0.00 96 1016.8
20260906111005 22 149 12.9 24.1 0.00 0.41 0.00 96 1016.9
20260906110005 22 167 14.5 24.1 0.00 0.41 0.00 96 1016.9
20260906105005 22 168 11.3 19.3 0.00 0.41 0.00 96 1016.7
20260906104004 22 164 14.5 20.9 0.00 0.41 0.00 96 1016.8
20260906103004 22 159 12.9 19.3 0.00 0.41 0.00 96 1017.0
20260906102005 22 169 9.7 20.9 0.00 0.41 0.00 96 1017.0
20260906101004 22 162 11.3 19.3 0.00 0.41 0.00 96 1017.1
20260906100005 22 163 11.3 19.3 0.00 0.41 0.00 96 1017.2
20260906095004 22 166 9.7 22.5 0.00 0.41 0.00 96 1017.1
20260906094004 22 164 9.7 19.3 0.00 0.41 0.00 96 1017.1
20260906092004 22 169 8.0 19.3 0.00 0.41 0.00 96 1016.9
20260906090005 22 173 16.1 25.7 0.00 0.41 0.00 96 1016.7
20260906085005 22 169 11.3 20.9 0.00 0.41 0.00 96 1016.6
20260906084004 22 165 11.3 19.3 0.00 0.41 0.00 96 1016.6
20260906083004 22 165 9.7 20.9 0.00 0.41 0.00 96 1016.6
20260906082005 22 150 9.7 20.9 0.00 0.41 0.00 96 1016.6
20260906081004 22 158 11.3 20.9 0.00 0.41 0.00 96 1016.6
20260906080004 22 162 9.7 19.3 0.00 0.41 0.00 96 1016.7
20260906075005 22 155 9.7 19.3 0.00 0.41 0.00 96 1016.5
20260906074005 22 152 11.3 16.1 0.00 0.41 0.00 96 1016.5
20260906073004 22 150 9.7 16.1 0.00 0.41 0.00 96 1016.5
20260906072005 22 152 11.3 14.5 0.00 0.41 0.00 96 1016.5
20260906071004 22 152 11.3 19.3 0.00 0.41 0.00 96 1016.6
20260906070004 22 155 11.3 16.1 0.00 0.41 0.00 96 1016.7
20260906065005 22 148 11.3 24.1 0.00 0.41 0.00 96 1016.7
20260906064005 22 153 14.5 24.1 0.00 0.41 0.00 96 1016.9
20260906063005 22 150 14.5 24.1 0.00 0.41 0.00 95 1016.9
20260906062004 22 153 11.3 19.3 0.00 0.41 0.00 95 1016.8
20260906055005 22 151 8.0 14.5 0.00 0.41 0.00 95 1016.8
20260906054004 22 146 8.0 14.5 0.00 0.41 0.00 95 1016.7
20260906053005 23 150 9.7 14.5 0.00 0.41 0.00 95 1016.6
20260906052005 23 145 6.4 12.9 0.00 0.41 0.00 95 1016.6
20260906050005 23 156 4.8 12.9 0.00 0.41 0.00 95 1016.6
20260906045005 23 159 6.4 12.9 0.00 0.41 0.41 95 1016.7
20260906044004 23 156 6.4 11.3 0.00 0.41 0.41 95 1016.7
20260906043004 23 154 6.4 11.3 0.00 0.41 0.41 94 1016.6
20260906042004 23 151 6.4 12.9 0.00 0.41 0.41 94 1016.7
20260906041004 23 141 4.8 9.7 0.00 0.41 0.41 94 1016.6
20260906040005 23 139 4.8 12.9 0.00 0.41 0.41 94 1016.5
20260906035004 23 152 8.0 12.9 0.00 0.41 0.41 94 1016.4
20260906034004 23 148 6.4 11.3 0.00 0.41 0.41 94 1016.4
20260906033005 23 148 4.8 9.7 0.00 0.41 0.41 94 1016.4
20260906032004 23 143 4.8 12.9 0.00 0.41 0.41 94 1016.4
20260906031004 23 142 4.8 9.7 0.00 0.41 0.41 93 1016.7
20260906030004 23 131 4.8 4.8 0.00 0.41 0.41 93 1016.7
20260906025004 23 132 4.8 11.3 0.00 0.41 0.41 92 1016.7
20260906024004 23 117 4.8 8.0 0.00 0.41 0.41 92 1016.7
20260906023005 23 121 3.2 8.0 0.00 0.41 0.41 91 1016.5
20260906022005 23 117 4.8 9.7 0.00 0.41 0.41 91 1016.4
20260906021004 23 123 3.2 4.8 0.00 0.41 0.41 91 1016.4
20260906020004 23 126 4.8 9.7 0.00 0.41 0.41 90 1016.2
20260906014005 23 113 8.0 11.3 0.00 0.41 0.41 89 1016.2
20260906012004 23 131 3.2 4.8 0.00 0.41 0.41 88 1015.9
20260906011005 24 123 3.2 4.8 0.00 0.41 0.41 88 1015.9
20260906005004 24 136 4.8 11.3 0.00 0.41 0.41 86 1015.5
20260906003004 25 137 4.8 12.9 0.00 0.41 0.41 83 1015.4
20260906002005 26 142 6.4 14.5 0.00 0.41 0.41 80 1015.6
20260906001004 26 145 8.0 12.9 0.00 0.41 0.41 79 1015.7
20260905235004 26 145 11.3 19.3 0.00 0.41 0.41 76 1015.8
20260905234004 27 144 11.3 20.9 0.00 0.41 0.41 75 1015.6
20260905233005 27 149 11.3 19.3 0.00 0.41 0.41 74 1015.6
20260905232004 27 155 12.9 20.9 0.00 0.41 0.41 72 1015.5
20260905231004 27 156 11.3 20.9 0.00 0.41 0.41 72 1015.5
20260905225004 28 158 14.5 24.1 0.00 0.41 0.41 69 1015.3
20260905224004 28 165 12.9 20.9 0.00 0.41 0.41 69 1015.3
20260905223005 28 143 14.5 24.1 0.00 0.41 0.41 68 1015.4
20260905222005 28 144 19.3 29.0 0.00 0.41 0.41 66 1015.2
20260905221004 28 145 14.5 27.4 0.00 0.41 0.41 67 1015.0
20260905220004 28 149 17.7 27.4 0.00 0.41 0.41 66 1015.0
20260905214004 28 152 14.5 29.0 0.00 0.41 0.41 67 1014.9
20260905213004 28 140 14.5 24.1 0.00 0.41 0.41 66 1014.9
20260905212004 28 145 12.9 24.1 0.00 0.41 0.41 67 1014.9
20260905211004 28 147 14.5 24.1 0.00 0.41 0.41 68 1014.8
20260905210004 28 139 14.5 22.5 0.00 0.41 0.41 71 1014.7
20260905205004 27 149 16.1 24.1 0.00 0.41 0.41 72 1014.6
20260905204004 27 132 11.3 19.3 0.00 0.41 0.41 72 1014.7
20260905202005 27 144 11.3 24.1 0.00 0.41 0.41 70 1014.7
20260905201004 27 129 11.3 19.3 0.00 0.41 0.41 73 1014.6
20260905200005 27 140 12.9 32.2 0.00 0.41 0.41 73 1014.5
20260905195004 27 149 19.3 40.2 0.00 0.41 0.41 75 1014.7
20260905194005 28 144 16.1 27.4 0.00 0.41 0.41 67 1014.5
20260905193005 28 132 16.1 22.5 0.00 0.41 0.41 66 1014.6
20260905192004 28 131 9.7 16.1 0.00 0.41 0.41 67 1014.3
20260905191004 28 146 8.0 12.9 0.00 0.41 0.41 63 1014.6
20260905190005 28 131 3.2 11.3 0.00 0.41 0.41 62 1014.7
20260905185004 28 170 4.8 12.9 0.00 0.41 0.41 63 1014.8